FW8870 Weather Reports


Display with metric or nautical units.
time (UTC)temp
F
wind
direction
speed
MPH
gust
MPH
rain 1hr
in
rain 24hr
in
rain mn
in
humidity
%
barometer
mb
20260903143803 52 53 1.0 1.0 0.00 0.00 0.00 88 1011.0
20260903143300 52 218 2.0 2.0 0.00 0.00 0.00 90 1010.6
20260903142755 52 323 0.0 0.0 0.00 0.00 0.00 90 1010.6
20260903142251 52 355 0.0 0.0 0.00 0.00 0.00 90 1010.6
20260903141747 51 290 0.0 0.0 0.00 0.00 0.00 90 1010.7
20260903141242 51 3 0.0 1.0 0.00 0.00 0.00 91 1010.7
20260903140737 51 345 0.0 0.0 0.00 0.00 0.00 91 1010.7
20260903140232 50 319 0.0 0.0 0.00 0.00 0.00 92 1010.5
20260903135728 50 289 1.0 1.0 0.00 0.00 0.00 94 1010.8
20260903135223 50 336 0.0 0.0 0.00 0.00 0.00 95 1010.4
20260903134721 50 346 0.0 0.0 0.00 0.00 0.00 95 1010.3
20260903134218 50 351 0.0 0.0 0.00 0.00 0.00 95 1010.5
20260903133715 50 343 2.0 2.0 0.00 0.00 0.00 94 1010.3
20260903133212 49 348 0.0 0.0 0.00 0.00 0.00 95 1010.3
20260903132711 50 210 2.0 2.0 0.00 0.00 0.00 93 1010.2
20260903132206 50 357 0.0 0.0 0.00 0.00 0.00 94 1010.3
20260903131701 50 219 1.0 2.0 0.00 0.00 0.00 94 1010.2
20260903131201 50 344 0.0 0.0 0.00 0.00 0.00 93 1010.1
20260903130656 50 314 0.0 0.0 0.00 0.00 0.00 93 1010.1
20260903130150 50 69 1.0 1.0 0.00 0.00 0.00 95 1010.0
20260903125648 50 288 1.0 1.0 0.00 0.00 0.00 96 1010.1
20260903125144 50 336 0.0 0.0 0.00 0.00 0.00 95 1010.0
20260903124643 50 349 1.0 1.0 0.00 0.00 0.00 95 1010.0
20260903124137 50 344 0.0 0.0 0.00 0.00 0.00 94 1009.8
20260903123631 50 322 0.0 0.0 0.00 0.00 0.00 93 1009.8
20260903123131 50 323 0.0 0.0 0.00 0.00 0.00 92 1009.9
20260903122631 50 318 0.0 0.0 0.00 0.00 0.00 92 1010.0
20260903122130 50 3 0.0 0.0 0.00 0.00 0.00 93 1009.8
20260903121629 50 271 0.0 0.0 0.00 0.00 0.00 93 1009.6
20260903121126 51 216 1.0 2.0 0.00 0.00 0.00 92 1009.5
20260903120624 51 330 0.0 0.0 0.00 0.00 0.00 92 1009.8
20260903120119 51 294 0.0 0.0 0.00 0.00 0.00 92 1009.6
20260903115617 51 329 0.0 0.0 0.00 0.00 0.00 91 1009.5
20260903115113 52 193 2.0 2.0 0.00 0.00 0.00 90 1009.5
20260903114608 52 207 2.0 3.0 0.00 0.00 0.00 90 1009.6
20260903114103 52 235 0.0 0.0 0.00 0.00 0.00 88 1009.5
20260903113559 53 229 1.0 2.0 0.00 0.00 0.00 86 1009.4
20260903113055 54 199 2.0 2.0 0.00 0.00 0.00 84 1009.5
20260903112551 53 213 2.0 2.0 0.00 0.00 0.00 85 1009.3
20260903112050 54 313 0.0 1.0 0.00 0.00 0.00 87 1009.1
20260903111549 53 322 1.0 2.0 0.00 0.00 0.00 84 1009.4
20260903111046 53 298 1.0 1.0 0.00 0.00 0.00 88 1009.2
20260903110542 54 130 1.0 1.0 0.00 0.00 0.00 88 1009.3
20260903110036 54 132 4.0 5.0 0.00 0.00 0.00 82 1009.0
20260903105531 52 351 0.0 1.0 0.00 0.00 0.00 92 1008.8
20260903105025 53 198 1.0 1.0 0.00 0.00 0.00 90 1009.0
20260903104520 53 58 1.0 2.0 0.00 0.00 0.00 89 1009.0
20260903104016 53 329 0.0 0.0 0.00 0.00 0.00 91 1008.9
20260903103512 53 339 0.0 0.0 0.00 0.00 0.00 90 1009.0
20260903103008 53 313 0.0 0.0 0.00 0.00 0.00 89 1008.9
20260903102503 54 342 0.0 0.0 0.00 0.00 0.00 88 1008.8
20260903102002 54 292 0.0 0.0 0.00 0.00 0.00 85 1008.9
20260903101456 55 170 2.0 3.0 0.00 0.00 0.00 85 1008.7
20260903100952 55 162 2.0 2.0 0.00 0.00 0.00 82 1008.7
20260903100447 55 38 0.0 1.0 0.00 0.00 0.00 83 1008.7
20260903095944 57 279 1.0 1.0 0.00 0.00 0.00 79 1008.7
20260903095438 57 45 0.0 0.0 0.00 0.00 0.00 75 1008.5
20260903094933 58 155 3.0 5.0 0.00 0.00 0.00 75 1008.7
20260903094432 57 0 4.0 5.0 0.00 0.00 0.00 77 1008.8
20260903093929 56 26 1.0 1.0 0.00 0.00 0.00 80 1008.6
20260903093424 56 331 0.0 0.0 0.00 0.00 0.00 78 1008.7
20260903092920 55 195 3.0 3.0 0.00 0.00 0.00 83 1008.8
20260903092419 57 142 1.0 1.0 0.00 0.00 0.00 82 1008.6
20260903091918 58 168 2.0 3.0 0.00 0.00 0.00 76 1008.6
20260903091417 59 23 0.0 1.0 0.00 0.00 0.00 73 1008.5
20260903090912 58 70 0.0 1.0 0.00 0.00 0.00 73 1008.7
20260903090408 58 53 1.0 1.0 0.00 0.00 0.00 74 1008.7
20260903085906 58 151 0.0 1.0 0.00 0.00 0.00 76 1008.8
20260903085405 57 24 2.0 2.0 0.00 0.00 0.00 79 1008.6
20260903084905 56 342 0.0 1.0 0.00 0.00 0.00 79 1008.7
20260903084403 55 1 0.0 0.0 0.00 0.00 0.00 86 1008.8
20260903083859 56 345 0.0 0.0 0.00 0.00 0.00 86 1008.8
20260903083354 56 188 0.0 1.0 0.00 0.00 0.00 85 1008.6
20260903082853 57 347 0.0 0.0 0.00 0.00 0.00 82 1009.0
20260903082348 56 254 1.0 1.0 0.00 0.00 0.00 83 1008.9
20260903081844 58 19 0.0 0.0 0.00 0.00 0.00 81 1008.6
20260903081339 58 17 1.0 1.0 0.00 0.00 0.00 78 1008.6
20260903080835 56 9 1.0 1.0 0.00 0.00 0.00 83 1008.6
20260903080332 57 352 0.0 0.0 0.00 0.00 0.00 83 1009.0
20260903075831 58 263 1.0 1.0 0.00 0.00 0.00 79 1008.8
20260903075327 59 62 1.0 1.0 0.00 0.00 0.00 77 1008.7
20260903074827 58 158 2.0 2.0 0.00 0.00 0.00 76 1008.7
20260903074321 58 355 0.0 0.0 0.00 0.00 0.00 77 1008.5
20260903073817 58 150 2.0 3.0 0.00 0.00 0.00 77 1008.5
20260903073312 58 28 0.0 1.0 0.00 0.00 0.00 77 1008.3
20260903072808 58 68 4.0 6.0 0.00 0.00 0.00 77 1008.3
20260903072306 59 246 1.0 1.0 0.00 0.00 0.00 77 1008.3
20260903071801 59 350 0.0 0.0 0.00 0.00 0.00 76 1008.2
20260903071256 59 22 4.0 6.0 0.00 0.00 0.00 75 1008.2
20260903070756 59 339 0.0 0.0 0.00 0.00 0.00 75 1008.1
20260903070252 59 18 0.0 1.0 0.00 0.00 0.00 77 1008.1
20260903065747 58 178 2.0 5.0 0.00 0.03 0.03 79 1008.2
20260903065246 58 51 1.0 1.0 0.00 0.03 0.03 80 1008.1
20260903064745 59 5 0.0 0.0 0.00 0.03 0.03 77 1008.4
20260903064240 59 4 0.0 0.0 0.00 0.03 0.03 76 1008.1
20260903063737 59 342 0.0 1.0 0.00 0.03 0.03 76 1008.1
20260903063231 60 9 1.0 1.0 0.00 0.03 0.03 74 1008.1
20260903062727 59 72 4.0 6.0 0.00 0.03 0.03 75 1008.0
20260903062227 60 100 1.0 1.0 0.00 0.03 0.03 75 1008.1
20260903061723 60 153 2.0 3.0 0.00 0.03 0.03 74 1008.0
20260903061221 60 19 2.0 2.0 0.00 0.03 0.03 73 1007.9
20260903060717 60 188 4.0 6.0 0.00 0.03 0.03 74 1007.9
20260903060212 60 211 2.0 2.0 0.00 0.03 0.03 73 1008.1
20260903055709 61 316 0.0 0.0 0.00 0.03 0.03 73 1008.1
20260903055208 60 20 2.0 2.0 0.00 0.03 0.03 74 1008.4
20260903054702 61 102 3.0 5.0 0.00 0.03 0.03 73 1008.1
20260903054153 61 190 1.0 3.0 0.00 0.03 0.03 73 1008.3
20260903053649 61 175 5.0 7.0 0.00 0.03 0.03 72 1008.3
20260903053144 61 16 2.0 2.0 0.00 0.03 0.03 71 1008.3
20260903052640 61 160 5.0 6.0 0.00 0.03 0.03 71 1008.3
20260903052135 61 67 1.0 2.0 0.00 0.03 0.03 71 1008.0
20260903051630 61 12 5.0 7.0 0.00 0.03 0.03 70 1008.0
20260903051126 61 30 3.0 6.0 0.00 0.03 0.03 71 1007.8
20260903050625 61 96 3.0 3.0 0.00 0.03 0.03 70 1007.9
20260903050120 62 145 3.0 5.0 0.00 0.03 0.03 69 1007.9
20260903045620 62 30 4.0 5.0 0.00 0.03 0.03 69 1008.0
20260903045117 62 247 2.0 5.0 0.00 0.03 0.03 69 1007.7
20260903044612 62 28 2.0 5.0 0.00 0.03 0.03 69 1007.7
20260903044108 62 77 2.0 3.0 0.00 0.03 0.03 69 1007.6
20260903043604 62 291 1.0 1.0 0.00 0.03 0.03 70 1007.5
20260903043103 62 171 3.0 5.0 0.00 0.03 0.03 71 1007.4
20260903042557 61 342 0.0 0.0 0.00 0.03 0.03 72 1007.2
20260903042053 61 2 1.0 1.0 0.00 0.03 0.03 74 1007.1
20260903041549 62 63 2.0 2.0 0.00 0.03 0.03 74 1007.0
20260903041044 62 204 5.0 7.0 0.00 0.03 0.03 75 1006.7
20260903040543 62 195 3.0 5.0 0.00 0.03 0.03 75 1006.7
20260903040040 62 111 6.0 7.0 0.00 0.03 0.03 75 1006.5
20260903035540 62 123 5.0 6.0 0.00 0.03 0.03 76 1006.3
20260903035036 61 29 1.0 2.0 0.00 0.03 0.03 80 1006.4
20260903034531 61 38 0.0 1.0 0.00 0.03 0.03 81 1006.4
20260903034026 61 335 0.0 1.0 0.00 0.03 0.03 80 1006.2
20260903033521 61 113 3.0 3.0 0.00 0.03 0.03 80 1005.8
20260903033017 61 112 1.0 1.0 0.00 0.03 0.03 82 1005.9
20260903032512 61 165 2.0 2.0 0.00 0.03 0.03 85 1005.9
20260903032007 60 332 0.0 0.0 0.00 0.03 0.03 85 1005.8
20260903031507 60 156 3.0 5.0 0.00 0.03 0.03 87 1005.6
20260903031002 60 128 4.0 5.0 0.00 0.03 0.03 86 1005.4
20260903030457 60 170 5.0 6.0 0.00 0.03 0.03 84 1005.1
20260903025953 61 64 1.0 1.0 0.00 0.03 0.03 82 1005.2
20260903025449 60 156 3.0 3.0 0.00 0.03 0.03 84 1005.0
20260903024944 60 204 2.0 3.0 0.00 0.03 0.03 86 1005.1
20260903024443 60 294 3.0 5.0 0.00 0.03 0.03 86 1005.1
20260903023938 60 344 0.0 0.0 0.00 0.03 0.03 87 1004.9
20260903023434 60 1 1.0 1.0 0.00 0.03 0.03 90 1005.0
20260903022929 60 0 0.0 1.0 0.00 0.03 0.03 90 1005.1
20260903022428 61 163 1.0 2.0 0.00 0.03 0.03 86 1005.0
20260903021926 60 116 1.0 2.0 0.00 0.03 0.03 86 1005.0
20260903021422 61 273 0.0 0.0 0.00 0.03 0.03 87 1005.0
20260903020917 61 167 3.0 3.0 0.00 0.03 0.03 86 1005.0
20260903020412 61 292 1.0 1.0 0.00 0.03 0.03 88 1005.1
20260903015907 60 76 5.0 7.0 0.00 0.03 0.03 86 1005.2
20260903015403 61 227 2.0 3.0 0.00 0.03 0.03 88 1004.8
20260903014858 61 137 5.0 6.0 0.00 0.03 0.03 88 1005.1
20260903014357 60 101 2.0 3.0 0.00 0.03 0.03 89 1005.0
20260903013852 60 110 3.0 3.0 0.00 0.03 0.03 90 1005.1
20260903013352 59 15 2.0 2.0 0.00 0.03 0.03 91 1005.5
20260903012851 59 357 1.0 1.0 0.00 0.03 0.03 92 1005.2
20260903012351 59 30 1.0 1.0 0.00 0.03 0.03 94 1005.0
20260903011849 59 330 0.0 1.0 0.00 0.03 0.03 94 1005.3
20260903011344 59 131 1.0 1.0 0.00 0.03 0.03 94 1005.0
20260903010840 59 325 2.0 2.0 0.05 0.03 0.03 94 1004.8
20260903010335 59 322 0.0 0.0 0.05 0.03 0.03 94 1005.3
20260903005833 59 169 4.0 6.0 0.07 0.02 0.02 94 1005.2
20260903005329 59 316 0.0 0.0 0.07 0.02 0.02 94 1004.8
20260903004824 60 141 2.0 2.0 0.00 0.01 0.01 92 1005.2
20260903004320 60 80 2.0 3.0 0.05 0.01 0.01 90 1005.2
20260903003816 60 3 0.0 1.0 0.05 0.01 0.01 89 1004.8
20260903003310 61 51 5.0 6.0 0.00 0.00 0.00 87 1005.2
20260903002810 62 125 7.0 9.0 0.00 0.00 0.00 83 1005.1
20260903002309 63 65 3.0 3.0 0.00 0.00 0.00 81 1004.9
20260903001804 63 87 4.0 5.0 0.00 0.00 0.00 78 1005.0
20260903001259 64 124 4.0 5.0 0.00 0.00 0.00 74 1004.8
20260903000754 65 99 2.0 3.0 0.00 0.00 0.00 70 1004.7
20260903000249 66 98 2.0 3.0 0.00 0.00 0.00 68 1004.6
20260902235747 66 130 3.0 5.0 0.00 0.00 0.00 67 1004.6
20260902235243 66 357 3.0 5.0 0.00 0.00 0.00 66 1004.4
20260902234742 67 45 7.0 9.0 0.00 0.00 0.00 66 1004.4
20260902234242 67 5 1.0 1.0 0.00 0.00 0.00 65 1004.1
20260902233742 67 92 1.0 1.0 0.00 0.00 0.00 65 1004.2
20260902233236 67 260 1.0 1.0 0.00 0.00 0.00 64 1004.1
20260902232735 68 239 2.0 2.0 0.00 0.00 0.00 64 1004.2
20260902232235 68 78 2.0 2.0 0.00 0.00 0.00 63 1004.3
20260902231734 67 81 2.0 3.0 0.00 0.00 0.00 63 1004.1
20260902231230 67 157 5.0 8.0 0.00 0.00 0.00 64 1004.2
20260902230724 68 139 7.0 10.0 0.00 0.00 0.00 63 1004.2
20260902230223 68 123 0.0 1.0 0.00 0.00 0.00 65 1004.3
20260902225718 68 68 5.0 6.0 0.00 0.00 0.00 62 1004.2
20260902225218 68 156 3.0 3.0 0.00 0.00 0.00 62 1004.0
20260902224717 69 331 0.0 0.0 0.00 0.00 0.00 64 1004.1
20260902224212 69 5 0.0 1.0 0.00 0.00 0.00 61 1004.0
20260902223708 69 305 0.0 0.0 0.00 0.00 0.00 62 1004.3
20260902223208 69 168 4.0 5.0 0.00 0.00 0.00 60 1004.1
20260902222707 69 297 2.0 5.0 0.00 0.00 0.00 60 1004.1
20260902222201 70 42 4.0 6.0 0.00 0.00 0.00 57 1004.0
20260902221655 70 191 3.0 3.0 0.00 0.00 0.00 57 1003.8
20260902221154 70 69 4.0 5.0 0.00 0.00 0.00 56 1004.0
20260902220650 70 218 3.0 3.0 0.00 0.00 0.00 55 1004.1
20260902220145 70 88 3.0 3.0 0.00 0.00 0.00 55 1004.1
20260902215641 70 147 4.0 5.0 0.00 0.00 0.00 55 1004.0
20260902215136 70 140 1.0 2.0 0.00 0.00 0.00 56 1004.2
20260902214631 70 297 3.0 3.0 0.00 0.00 0.00 55 1004.3
20260902214130 70 211 6.0 7.0 0.00 0.00 0.00 54 1004.3
20260902213626 71 19 4.0 6.0 0.00 0.00 0.00 56 1004.3
20260902213125 71 265 1.0 1.0 0.00 0.00 0.00 56 1004.4
20260902212621 71 208 3.0 5.0 0.00 0.00 0.00 56 1004.1
20260902212117 71 165 4.0 5.0 0.00 0.00 0.00 56 1004.2
20260902211613 71 189 2.0 2.0 0.00 0.00 0.00 57 1004.4
20260902211108 71 20 4.0 5.0 0.00 0.00 0.00 55 1004.4
20260902210607 71 105 2.0 2.0 0.00 0.00 0.00 55 1004.5
20260902205601 71 63 5.0 6.0 0.00 0.00 0.00 55 1004.3
20260902205057 72 45 7.0 9.0 0.00 0.00 0.00 54 1004.5
20260902204556 72 218 5.0 7.0 0.00 0.00 0.00 53 1004.3
20260902204051 71 145 4.0 5.0 0.00 0.00 0.00 54 1004.5
20260902203547 71 310 4.0 9.0 0.00 0.00 0.00 55 1004.6
20260902203046 71 315 1.0 2.0 0.00 0.00 0.00 56 1004.2
20260902202542 70 300 1.0 1.0 0.00 0.00 0.00 57 1004.8
20260902202038 71 353 2.0 2.0 0.00 0.00 0.00 55 1004.8
20260902201534 71 101 2.0 3.0 0.00 0.00 0.00 56 1004.7
20260902201033 71 107 4.0 5.0 0.00 0.00 0.00 54 1004.7
20260902200528 71 182 9.0 13.0 0.00 0.00 0.00 53 1004.9
20260902200024 71 95 5.0 8.0 0.00 0.00 0.00 54 1004.9
20260902195520 72 159 4.0 7.0 0.00 0.00 0.00 54 1004.9
20260902195019 72 320 5.0 6.0 0.00 0.00 0.00 53 1005.0
20260902194518 73 11 2.0 3.0 0.00 0.00 0.00 52 1005.0
20260902194014 73 184 11.0 15.0 0.00 0.00 0.00 51 1004.9
20260902193510 74 98 7.0 9.0 0.00 0.00 0.00 50 1005.1
20260902193009 73 246 5.0 6.0 0.00 0.00 0.00 50 1005.1
20260902192508 73 190 7.0 8.0 0.00 0.00 0.00 52 1005.2
20260902192007 73 255 2.0 3.0 0.00 0.00 0.00 53 1005.2
20260902191503 72 106 8.0 9.0 0.00 0.00 0.00 52 1005.1
20260902190957 73 145 3.0 7.0 0.00 0.00 0.00 56 1005.2
20260902190452 72 168 7.0 9.0 0.00 0.00 0.00 52 1005.4
20260902185948 71 84 3.0 3.0 0.00 0.00 0.00 53 1005.4
20260902185444 71 187 3.0 3.0 0.00 0.00 0.00 55 1005.3
20260902184939 72 119 7.0 9.0 0.00 0.00 0.00 54 1005.3
20260902184434 71 109 4.0 6.0 0.00 0.00 0.00 51 1005.5
20260902183930 71 148 4.0 7.0 0.00 0.00 0.00 54 1005.8
20260902183426 72 36 0.0 0.0 0.00 0.00 0.00 56 1005.8
20260902182921 72 30 4.0 7.0 0.00 0.00 0.00 54 1005.9
20260902182418 73 28 5.0 7.0 0.00 0.00 0.00 51 1005.9
20260902181914 73 237 8.0 10.0 0.00 0.00 0.00 51 1006.0
20260902181409 71 115 3.0 6.0 0.00 0.00 0.00 54 1006.0
20260902180903 72 148 7.0 11.0 0.00 0.00 0.00 54 1006.0
20260902180358 71 103 5.0 8.0 0.00 0.00 0.00 56 1006.3
20260902175853 70 173 7.0 10.0 0.00 0.00 0.00 55 1006.2
20260902175349 70 142 5.0 6.0 0.00 0.00 0.00 57 1006.3
20260902174844 70 150 3.0 5.0 0.00 0.00 0.00 56 1006.4
20260902174342 70 170 7.0 9.0 0.00 0.00 0.00 57 1006.7
20260902173837 69 178 3.0 6.0 0.00 0.00 0.00 60 1006.8
20260902173336 69 179 8.0 11.0 0.00 0.00 0.00 58 1006.7
20260902172831 68 95 7.0 11.0 0.00 0.00 0.00 58 1006.7
20260902172331 69 133 3.0 5.0 0.00 0.00 0.00 58 1006.9
20260902171825 69 118 6.0 10.0 0.00 0.00 0.00 59 1007.2
20260902171320 69 147 6.0 7.0 0.00 0.00 0.00 60 1006.8
20260902170812 69 155 2.0 3.0 0.00 0.00 0.00 60 1007.1
20260902170307 68 101 10.0 15.0 0.00 0.00 0.00 61 1007.2
20260902165803 68 299 3.0 5.0 0.00 0.00 0.00 61 1007.3
20260902165308 68 90 6.0 8.0 0.00 0.00 0.00 63 1007.0
20260902164756 68 182 3.0 5.0 0.00 0.00 0.00 64 1007.2
20260902164250 68 111 3.0 6.0 0.00 0.00 0.00 64 1007.3
20260902163745 67 97 3.0 6.0 0.00 0.00 0.00 65 1007.0
20260902163244 67 107 6.0 8.0 0.00 0.00 0.00 65 1007.3
20260902162738 66 61 2.0 5.0 0.00 0.00 0.00 67 1007.4
20260902162233 66 207 7.0 9.0 0.00 0.00 0.00 67 1007.1
20260902161728 66 191 8.0 10.0 0.00 0.00 0.00 68 1007.2
20260902161223 65 225 6.0 8.0 0.00 0.00 0.00 70 1007.3
20260902160720 65 123 3.0 5.0 0.00 0.00 0.00 70 1007.1
20260902160214 66 120 4.0 6.0 0.00 0.00 0.00 70 1007.4
20260902155712 66 112 3.0 6.0 0.00 0.00 0.00 70 1007.6
20260902155211 67 142 7.0 9.0 0.00 0.00 0.00 69 1007.5
20260902154706 67 144 1.0 2.0 0.00 0.00 0.00 70 1007.5
20260902154201 66 37 2.0 2.0 0.00 0.00 0.00 71 1007.8
20260902153700 65 137 2.0 3.0 0.00 0.00 0.00 71 1007.8
20260902153155 65 47 1.0 1.0 0.00 0.00 0.00 73 1007.9
20260902152651 66 245 2.0 2.0 0.00 0.00 0.00 73 1007.9
20260902152147 64 41 3.0 3.0 0.00 0.00 0.00 73 1007.9
20260902151642 64 350 1.0 2.0 0.00 0.00 0.00 75 1007.7
20260902151137 64 184 3.0 3.0 0.00 0.00 0.00 75 1007.9
20260902150632 64 84 5.0 9.0 0.00 0.00 0.00 74 1008.0
20260902150127 64 269 1.0 2.0 0.00 0.00 0.00 74 1007.9
20260902145621 64 344 3.0 3.0 0.00 0.00 0.00 74 1007.9
20260902145121 64 153 4.0 6.0 0.00 0.00 0.00 74 1007.7
20260902144618 63 123 3.0 6.0 0.00 0.00 0.00 74 1007.8
20260902144118 64 193 5.0 7.0 0.00 0.00 0.00 74 1007.9